| time (UTC) | temp F | wind direction | speed MPH | gust MPH | rain 1hr in | rain 24hr in | rain mn in | humidity % | barometer mb |
| 20260905201539 | 77 | 59 | 3.0 | 9.0 | 0.01 | 0.06 | 0.04 | 55 | 1011.9 |
| 20260905200034 | 77 | 11 | 2.0 | 6.0 | 0.00 | 0.05 | 0.03 | 63 | 1011.9 |
| 20260905194533 | 75 | 0 | 0.0 | 3.0 | 0.00 | 0.06 | 0.03 | 60 | 1012.1 |
| 20260905193033 | 75 | 81 | 1.0 | 8.0 | 0.00 | 0.06 | 0.03 | 61 | 1012.2 |
| 20260905191533 | 76 | 101 | 2.0 | 8.0 | 0.00 | 0.06 | 0.03 | 61 | 1012.2 |
| 20260905190046 | 76 | 53 | 1.0 | 8.0 | 0.00 | 0.06 | 0.03 | 61 | 1012.3 |
| 20260905184548 | 76 | 352 | 5.0 | 10.0 | 0.00 | 0.06 | 0.03 | 60 | 1012.5 |
| 20260905183032 | 76 | 45 | 3.0 | 9.0 | 0.00 | 0.06 | 0.03 | 65 | 1012.6 |
| 20260905181539 | 74 | 338 | 3.0 | 6.0 | 0.00 | 0.06 | 0.03 | 63 | 1012.7 |
| 20260905180035 | 75 | 71 | 5.0 | 12.0 | 0.00 | 0.06 | 0.03 | 66 | 1012.8 |
| 20260905174544 | 74 | 75 | 4.0 | 8.0 | 0.00 | 0.06 | 0.03 | 69 | 1012.8 |
| 20260905173038 | 73 | 33 | 4.0 | 6.0 | 0.00 | 0.06 | 0.03 | 70 | 1013.1 |
| 20260905171533 | 73 | 290 | 2.0 | 4.0 | 0.00 | 0.06 | 0.03 | 71 | 1013.2 |
| 20260905170033 | 72 | 90 | 1.0 | 8.0 | 0.00 | 0.06 | 0.03 | 73 | 1013.4 |
| 20260905164535 | 72 | 0 | 2.0 | 5.0 | 0.00 | 0.07 | 0.03 | 75 | 1013.6 |
| 20260905163037 | 73 | 146 | 0.0 | 4.0 | 0.00 | 0.07 | 0.03 | 74 | 1013.8 |
| 20260905161534 | 71 | 13 | 3.0 | 7.0 | 0.01 | 0.07 | 0.03 | 75 | 1014.0 |
| 20260905160036 | 71 | 313 | 1.0 | 8.0 | 0.01 | 0.07 | 0.03 | 74 | 1013.9 |
| 20260905154537 | 71 | 282 | 2.0 | 6.0 | 0.01 | 0.07 | 0.03 | 72 | 1013.9 |
| 20260905153033 | 71 | 45 | 1.0 | 7.0 | 0.01 | 0.07 | 0.03 | 75 | 1014.1 |
| 20260905151537 | 70 | 41 | 1.0 | 6.0 | 0.00 | 0.06 | 0.02 | 76 | 1014.3 |
| 20260905150039 | 70 | 115 | 1.0 | 3.0 | 0.00 | 0.06 | 0.02 | 78 | 1014.1 |
| 20260905144540 | 69 | 0 | 0.0 | 4.0 | 0.00 | 0.07 | 0.02 | 79 | 1014.1 |
| 20260905143034 | 69 | 68 | 1.0 | 6.0 | 0.00 | 0.07 | 0.02 | 78 | 1014.0 |
| 20260905141540 | 69 | 84 | 1.0 | 4.0 | 0.00 | 0.07 | 0.02 | 80 | 1013.8 |
| 20260905140033 | 69 | 0 | 1.0 | 5.0 | 0.00 | 0.07 | 0.02 | 83 | 1013.7 |
| 20260905134535 | 69 | 85 | 2.0 | 6.0 | 0.00 | 0.07 | 0.02 | 80 | 1013.6 |
| 20260905133034 | 69 | 5 | 0.0 | 4.0 | 0.00 | 0.07 | 0.02 | 85 | 1013.7 |
| 20260905131546 | 68 | 111 | 0.0 | 4.0 | 0.00 | 0.07 | 0.02 | 83 | 1013.5 |
| 20260905130036 | 68 | 0 | 0.0 | 2.0 | 0.00 | 0.07 | 0.02 | 85 | 1013.5 |
| 20260905124544 | 67 | 84 | 0.0 | 3.0 | 0.00 | 0.08 | 0.02 | 86 | 1013.7 |
| 20260905123047 | 67 | 0 | 0.0 | 2.0 | 0.00 | 0.08 | 0.02 | 89 | 1013.6 |
| 20260905121535 | 66 | 158 | 1.0 | 3.0 | 0.00 | 0.08 | 0.02 | 94 | 1013.4 |
| 20260905120037 | 66 | 158 | 0.0 | 2.0 | 0.00 | 0.08 | 0.02 | 94 | 1013.6 |
| 20260905114541 | 65 | 0 | 0.0 | 1.0 | 0.00 | 0.08 | 0.02 | 94 | 1013.6 |
| 20260905113040 | 65 | 0 | 0.0 | 2.0 | 0.00 | 0.08 | 0.02 | 96 | 1013.7 |
| 20260905111547 | 64 | 158 | 0.0 | 2.0 | 0.01 | 0.08 | 0.02 | 96 | 1013.1 |
| 20260905110033 | 64 | 158 | 1.0 | 2.0 | 0.01 | 0.08 | 0.02 | 95 | 1012.8 |
| 20260905104534 | 64 | 0 | 0.0 | 0.0 | 0.01 | 0.08 | 0.02 | 95 | 1012.8 |
| 20260905103033 | 64 | 0 | 0.0 | 0.0 | 0.01 | 0.08 | 0.02 | 95 | 1012.9 |
| 20260905101539 | 64 | 0 | 0.0 | 2.0 | 0.00 | 0.07 | 0.01 | 94 | 1012.8 |
| 20260905100034 | 64 | 0 | 0.0 | 2.0 | 0.00 | 0.07 | 0.01 | 94 | 1012.7 |
| 20260905094533 | 65 | 0 | 0.0 | 1.0 | 0.00 | 0.08 | 0.01 | 93 | 1012.5 |
| 20260905093034 | 64 | 0 | 0.0 | 1.0 | 0.00 | 0.08 | 0.01 | 92 | 1012.6 |
| 20260905091537 | 65 | 158 | 0.0 | 3.0 | 0.00 | 0.08 | 0.01 | 91 | 1012.7 |
| 20260905090040 | 65 | 121 | 0.0 | 2.0 | 0.00 | 0.08 | 0.01 | 92 | 1012.5 |
| 20260905084557 | 65 | 0 | 0.0 | 6.0 | 0.00 | 0.08 | 0.01 | 90 | 1012.5 |
| 20260905083035 | 67 | 141 | 0.0 | 7.0 | 0.00 | 0.08 | 0.01 | 91 | 1012.5 |
| 20260905081535 | 68 | 74 | 3.0 | 8.0 | 0.00 | 0.08 | 0.01 | 92 | 1012.5 |
| 20260905080035 | 69 | 0 | 0.0 | 1.0 | 0.00 | 0.08 | 0.01 | 95 | 1012.4 |
| 20260905074536 | 69 | 0 | 0.0 | 3.0 | 0.00 | 0.08 | 0.01 | 95 | 1012.5 |
| 20260905073036 | 69 | 314 | 1.0 | 3.0 | 0.00 | 0.08 | 0.01 | 95 | 1012.5 |
| 20260905071534 | 69 | 0 | 0.0 | 1.0 | 0.00 | 0.08 | 0.01 | 95 | 1012.6 |
| 20260905070037 | 69 | 300 | 1.0 | 2.0 | 0.00 | 0.08 | 0.01 | 95 | 1012.8 |
| 20260905064535 | 69 | 0 | 0.0 | 1.0 | 0.01 | 0.08 | 0.01 | 96 | 1012.9 |
| 20260905063034 | 69 | 0 | 0.0 | 2.0 | 0.01 | 0.08 | 0.01 | 95 | 1013.1 |
| 20260905061538 | 69 | 0 | 0.0 | 2.0 | 0.01 | 0.08 | 0.01 | 95 | 1013.2 |
| 20260905060035 | 70 | 0 | 0.0 | 2.0 | 0.01 | 0.08 | 0.01 | 95 | 1013.1 |
| 20260905054535 | 69 | 318 | 0.0 | 1.0 | 0.00 | 0.08 | 0.00 | 96 | 1013.3 |
| 20260905053035 | 69 | 0 | 0.0 | 1.0 | 0.00 | 0.08 | 0.00 | 95 | 1013.4 |
| 20260905051539 | 70 | 0 | 0.0 | 1.0 | 0.00 | 0.08 | 0.00 | 95 | 1013.4 |
| 20260905050031 | 70 | 0 | 0.0 | 3.0 | 0.00 | 0.08 | 0.00 | 94 | 1013.4 |
| 20260905044537 | 70 | 341 | 1.0 | 3.0 | 0.00 | 0.08 | 0.00 | 94 | 1013.6 |
| 20260905043036 | 70 | 263 | 1.0 | 3.0 | 0.00 | 0.08 | 0.00 | 95 | 1013.6 |
| 20260905041537 | 70 | 0 | 0.0 | 2.0 | 0.00 | 0.08 | 0.00 | 95 | 1013.5 |
| 20260905040036 | 70 | 0 | 0.0 | 1.0 | 0.00 | 0.08 | 0.00 | 95 | 1013.6 |
| 20260905034544 | 70 | 0 | 0.0 | 3.0 | 0.00 | 0.08 | 0.08 | 95 | 1013.4 |
| 20260905033034 | 70 | 98 | 0.0 | 2.0 | 0.01 | 0.08 | 0.08 | 95 | 1013.4 |
| 20260905031539 | 70 | 0 | 0.0 | 1.0 | 0.01 | 0.08 | 0.08 | 94 | 1013.4 |
| 20260905030036 | 70 | 0 | 0.0 | 3.0 | 0.01 | 0.08 | 0.08 | 93 | 1013.3 |
| 20260905024541 | 70 | 0 | 0.0 | 2.0 | 0.01 | 0.09 | 0.08 | 92 | 1013.3 |
| 20260905023039 | 72 | 360 | 1.0 | 6.0 | 0.00 | 0.08 | 0.07 | 88 | 1013.4 |
| 20260905021541 | 74 | 304 | 3.0 | 7.0 | 0.00 | 0.08 | 0.07 | 82 | 1013.3 |
| 20260905020032 | 74 | 306 | 2.0 | 5.0 | 0.00 | 0.08 | 0.07 | 80 | 1013.1 |
| 20260905014535 | 74 | 298 | 2.0 | 4.0 | 0.00 | 0.08 | 0.07 | 80 | 1013.3 |
| 20260905013036 | 74 | 297 | 2.0 | 5.0 | 0.00 | 0.08 | 0.07 | 81 | 1013.2 |
| 20260905011536 | 73 | 283 | 1.0 | 4.0 | 0.00 | 0.08 | 0.07 | 84 | 1013.3 |
| 20260905010034 | 73 | 0 | 0.0 | 1.0 | 0.00 | 0.08 | 0.07 | 83 | 1013.1 |
| 20260905004535 | 74 | 296 | 0.0 | 2.0 | 0.00 | 0.08 | 0.07 | 82 | 1013.1 |
| 20260905003036 | 74 | 0 | 0.0 | 2.0 | 0.00 | 0.08 | 0.07 | 81 | 1012.9 |
| 20260905001535 | 75 | 334 | 0.0 | 3.0 | 0.00 | 0.08 | 0.07 | 79 | 1012.8 |
| 20260905000034 | 74 | 0 | 0.0 | 2.0 | 0.00 | 0.08 | 0.07 | 81 | 1012.8 |
| 20260904234545 | 75 | 0 | 0.0 | 2.0 | 0.01 | 0.09 | 0.07 | 80 | 1012.6 |
| 20260904233052 | 76 | 281 | 1.0 | 3.0 | 0.01 | 0.09 | 0.07 | 79 | 1012.8 |
| 20260904231536 | 76 | 263 | 1.0 | 4.0 | 0.01 | 0.09 | 0.07 | 76 | 1012.8 |
| 20260904230035 | 77 | 337 | 2.0 | 5.0 | 0.01 | 0.09 | 0.07 | 70 | 1012.5 |
| 20260904224542 | 78 | 360 | 2.0 | 7.0 | 0.00 | 0.08 | 0.06 | 70 | 1012.5 |
| 20260904223041 | 78 | 326 | 5.0 | 9.0 | 0.00 | 0.08 | 0.06 | 68 | 1012.6 |
| 20260904221536 | 79 | 36 | 3.0 | 9.0 | 0.00 | 0.08 | 0.06 | 68 | 1012.5 |
| 20260904220036 | 80 | 360 | 4.0 | 6.0 | 0.00 | 0.08 | 0.06 | 66 | 1012.3 |
| 20260904214541 | 79 | 0 | 1.0 | 5.0 | 0.00 | 0.08 | 0.06 | 71 | 1012.4 |
| 20260904213036 | 79 | 337 | 4.0 | 9.0 | 0.00 | 0.08 | 0.06 | 68 | 1012.8 |
| 20260904211534 | 79 | 325 | 5.0 | 10.0 | 0.00 | 0.08 | 0.06 | 67 | 1012.6 |
| 20260904210040 | 79 | 314 | 5.0 | 10.0 | 0.00 | 0.08 | 0.06 | 67 | 1012.9 |
| 20260904204537 | 81 | 336 | 3.0 | 10.0 | 0.00 | 0.09 | 0.06 | 67 | 1013.0 |
| 20260904203035 | 79 | 325 | 4.0 | 14.0 | 0.00 | 0.09 | 0.06 | 68 | 1013.1 |